Overview Statistics Trail Chart Weather Telemetry Raw packets
 

This is the latest recevied weather packets stored in our database for station/object HS2LXA-WX. If no packets are shown the sender has not sent any weather packets the latest 10 day(s).

<< 25 26 27 28 29 30 31 >>
Time Temp. Humidity Pressure Rain* Wind** Luminosity Snow
1788241471 31.67° C 99% 1011.2 hPa 2.03 mm - - -
1788240869 32.22° C 99% 1011.4 hPa 2.03 mm - - -
1788240269 32.22° C 99% 1011.5 hPa 2.03 mm - - -
1788239669 31.67° C 99% 1011.5 hPa 2.03 mm - - -
1788239069 31.11° C 99% 1011.7 hPa 2.03 mm - - -
1788238469 31.11° C 99% 1011.6 hPa 2.03 mm - - -
1788237869 30.56° C 99% 1011.8 hPa 2.03 mm - - -
1788237269 30.56° C 99% 1011.7 hPa 2.03 mm - - -
1788236669 30.56° C 99% 1011.9 hPa 2.03 mm - - -
1788236068 30.56° C 99% 1012 hPa 2.03 mm - - -
1788235468 30.56° C 99% 1012.2 hPa 2.03 mm - - -
1788234868 30.56° C 99% 1012.1 hPa 2.03 mm - - -
1788234268 30.56° C 99% 1012.2 hPa 2.03 mm - - -
1788233667 30.56° C 99% 1012.4 hPa 2.03 mm - - -
1788233067 30.56° C 99% 1012.5 hPa 2.03 mm - - -
1788232467 31.11° C 99% 1012.4 hPa 2.03 mm - - -
1788231867 30.56° C 99% 1012.3 hPa 2.03 mm - - -
1788231266 30.56° C 99% 1012.3 hPa 2.03 mm - - -
1788230667 30° C 99% 1012.3 hPa 2.03 mm - - -
1788230066 30° C 99% 1012.2 hPa 2.03 mm - - -
1788229466 29.44° C 99% 1012 hPa 2.03 mm - - -
1788228866 29.44° C 99% 1012 hPa 2.03 mm - - -
1788228266 29.44° C 99% 1011.7 hPa 2.03 mm - - -
1788227667 28.89° C 99% 1011.7 hPa 2.03 mm - - -
1788227066 29.44° C 99% 1011.6 hPa 2.03 mm - - -

* Rain latest hour (hover to see other rain measurements)
** Current wind speed in m/s (hover to see current wind gust speed)